Wind_Speed
31 31 29 27 25 25 26 27 29 31 31 31 33 35 37 35 32 29 26 27 31 34 35 34 29 25 24 25 26 28 27 27 27 26 24 23 25 27 28 26 24 24 25 28 27 26 28 29 29 28 26 24 22 22 22 23 24 25 27 27 27 27 28 28 28 27 27 27 26 26 26 27 27 29 34 39 41 41 42 44 44 46 45 44 46 47 52
30 32 32 32 31 30 30 31 31 31 33 35 35 35 35 36 37 35 30 28 31 32 35 39 39 33 29 27 27 29 30 30 31 31 29 26 25 27 29 29 27 25 26 30 28 27 29 30 30 30 28 26 24 24 25 25 26 27 28 28 28 28 28 28 28 28 27 27 26 27 28 28 29 30 33 37 38 36 37 40 40 41 41 41 42 42 47
27 30 32 32 33 33 32 33 33 33 33 34 36 38 36 36 37 37 35 34 35 32 31 35 39 38 36 35 33 32 33 33 32 32 32 28 26 28 30 30 28 26 29 31 29 29 30 31 32 32 30 27 26 27 27 28 28 28 28 28 28 27 27 26 27 27 27 27 28 29 29 30 31 32 33 36 36 33 33 35 36 36 36 37 38 40 46
22 24 27 30 31 32 33 33 32 33 33 33 34 36 37 38 37 35 36 39 38 33 31 33 35 36 37 37 36 35 36 37 35 34 33 29 26 27 29 28 27 28 32 32 29 30 32 32 34 33 31 30 29 29 28 28 28 28 28 27 27 26 26 26 26 27 27 29 30 31 32 33 34 36 36 37 38 36 35 35 33 32 33 34 36 40 45
19 20 22 26 27 26 28 32 33 32 34 34 34 34 35 37 38 36 37 38 35 30 30 33 35 37 38 38 38 37 35 36 37 37 34 29 25 26 28 26 25 30 34 32 30 32 33 34 35 34 32 31 29 29 29 29 29 29 27 26 26 25 25 26 26 27 28 29 30 31 32 32 33 34 35 36 37 36 36 35 33 31 31 31 33 36 39
14 16 18 19 20 20 22 27 31 33 35 35 34 35 34 34 36 37 35 32 29 27 30 32 33 36 39 40 39 39 37 36 37 36 33 28 25 24 25 26 27 31 35 33 31 32 34 34 35 34 32 31 30 30 31 30 29 28 26 24 23 22 23 24 24 24 25 26 27 27 26 27 28 30 32 34 35 34 34 34 33 31 28 27 30 33 34
10 13 16 14 15 19 20 20 22 27 31 32 33 34 34 33 33 34 34 32 28 26 29 31 30 31 34 35 36 39 41 40 38 35 31 27 24 22 24 28 30 31 34 35 33 34 35 36 36 35 33 33 33 33 32 30 27 25 23 21 21 21 21 21 20 20 20 20 21 22 23 25 26 28 30 32 32 32 31 32 32 30 28 26 27 29 31
10 12 15 14 14 17 18 17 16 17 21 26 30 33 34 35 34 34 35 36 33 29 28 28 28 29 29 30 32 36 39 40 39 37 34 29 26 24 24 28 30 31 34 36 36 35 36 36 35 35 35 35 36 34 31 28 25 22 21 20 20 20 19 19 18 17 16 17 19 21 22 24 25 27 30 30 31 31 30 31 30 29 29 29 27 28 28
8 11 15 17 16 15 14 12 11 13 16 21 26 29 31 33 34 34 35 35 34 34 31 28 30 32 30 30 32 36 37 39 41 40 37 34 31 29 28 29 29 30 33 36 37 36 35 35 35 36 37 36 35 32 29 26 24 22 22 21 20 20 19 18 17 16 16 17 19 21 23 24 25 27 29 30 31 30 29 30 30 28 28 29 29 29 27
11 10 13 15 14 12 10 9 10 13 17 22 26 29 30 30 30 32 34 34 34 34 31 30 32 33 33 33 34 36 37 38 40 41 39 37 35 34 34 32 31 32 33 35 38 37 35 36 36 36 36 34 32 31 29 27 25 24 23 22 20 20 19 18 17 17 17 19 21 23 24 25 26 28 30 30 30 30 28 29 29 29 28 29 31 30 27
20 15 12 12 12 8 8 8 12 14 15 19 23 24 27 29 28 29 32 34 35 34 31 32 34 34 36 35 33 34 35 35 36 38 37 37 36 35 35 33 32 34 34 35 39 39 36 36 36 35 35 33 32 32 31 28 26 24 23 21 20 20 19 19 19 19 19 20 22 24 25 26 26 28 30 30 30 29 28 28 29 28 27 28 30 30 27
25 21 17 15 14 10 9 11 14 15 17 17 14 14 18 25 27 30 32 33 34 34 33 34 35 35 37 35 31 32 34 34 34 35 35 36 37 36 35 33 33 33 33 34 39 40 37 36 37 36 36 35 34 34 30 27 25 23 22 20 20 21 21 20 20 20 21 22 23 25 26 26 27 28 29 29 28 27 27 28 27 26 26 27 28 28 26
26 25 22 18 16 15 15 15 16 17 17 12 12 14 17 21 24 28 33 33 32 34 36 37 37 38 37 34 31 32 33 33 34 36 36 37 37 35 35 33 31 31 32 34 40 41 38 37 37 36 36 35 34 31 28 26 24 22 20 20 21 22 22 21 21 22 23 24 25 26 26 26 27 28 28 27 26 25 26 26 26 24 24 26 26 25 25
25 25 24 20 18 18 18 17 18 19 14 11 14 18 21 23 24 25 29 32 34 37 38 39 41 42 40 35 32 32 32 32 34 36 36 35 35 34 32 30 29 31 33 36 39 39 37 35 34 34 34 32 30 28 26 25 24 23 22 22 23 24 23 22 23 25 26 27 27 27 27 27 27 28 28 26 24 23 23 25 25 24 23 25 26 25 26
23 23 22 18 13 13 16 15 16 18 16 18 19 20 21 24 26 26 28 30 34 39 42 43 44 46 44 40 36 34 33 33 33 33 33 32 30 30 28 28 30 34 36 38 38 37 35 34 32 31 30 28 25 24 24 25 25 24 24 24 25 25 25 25 26 27 28 28 28 27 27 27 27 28 27 24 22 21 22 24 25 23 24 26 26 26 29
24 23 21 18 15 15 18 17 15 20 22 24 24 24 24 24 25 27 28 29 32 38 42 42 43 44 43 40 38 36 34 33 31 30 29 29 29 28 29 31 34 35 35 36 35 34 32 30 29 27 25 23 23 24 25 25 24 24 24 26 27 28 28 27 28 29 30 29 28 28 27 27 27 27 25 23 21 20 21 23 24 24 25 27 27 28 31
28 25 21 19 21 23 22 19 17 24 26 24 25 26 25 22 22 24 26 27 28 31 34 36 35 35 35 33 32 31 31 30 28 27 27 28 28 30 31 33 34 33 31 31 30 28 26 25 24 23 23 24 25 26 27 26 24 24 25 27 29 29 29 30 30 31 31 29 28 27 26 26 26 25 24 22 20 19 20 22 24 25 26 26 27 29 32
29 29 26 25 25 27 27 23 22 27 26 21 21 22 21 17 16 19 22 22 19 19 23 28 31 31 29 28 27 26 27 28 28 28 29 30 30 31 32 32 31 29 27 26 25 23 23 23 23 24 27 28 27 26 26 24 23 23 25 27 28 28 29 30 30 30 29 28 27 27 26 26 26 25 24 22 19 18 18 21 24 26 26 26 28 30 32
20 19 22 26 26 29 32 29 27 26 18 13 12 11 11 11 10 13 17 19 20 23 28 32 32 30 29 29 30 30 31 32 32 32 32 32 31 31 30 29 27 25 24 24 23 23 24 24 24 25 26 26 24 23 23 23 23 24 25 26 27 27 28 27 27 27 27 27 27 27 27 26 26 25 24 21 19 17 18 20 24 26 26 27 29 30 31
16 14 17 21 22 25 29 29 23 13 12 16 16 15 15 13 10 9 13 20 25 28 32 35 35 34 34 34 35 36 36 36 36 35 34 33 32 31 30 28 27 26 26 25 26 26 26 27 26 24 23 22 21 21 22 23 24 25 26 26 26 26 26 26 26 27 27 26 27 27 27 27 26 25 23 21 19 18 19 22 25 26 26 27 29 29 29
14 14 16 16 15 17 22 23 18 20 25 25 26 27 25 25 22 17 17 23 29 31 32 34 36 38 38 37 37 37 37 36 36 36 34 33 31 29 28 25 23 23 22 21 21 21 22 23 24 22 20 20 20 21 22 24 25 25 25 26 26 26 26 26 26 25 25 25 25 27 28 28 27 25 24 22 20 19 21 24 26 26 26 28 29 29 28
9 12 14 16 16 15 17 21 25 31 30 27 29 30 28 29 30 28 27 29 29 30 30 30 32 35 35 34 33 33 32 31 31 31 30 28 26 24 23 20 18 17 16 15 15 15 16 16 17 18 19 20 21 22 23 24 25 25 26 27 27 27 26 25 24 24 23 23 24 26 28 28 27 26 24 22 19 19 22 26 27 27 26 26 27 27 27
11 14 17 20 19 17 17 22 26 29 28 26 27 28 29 30 29 29 32 31 27 25 25 26 26 28 29 29 27 26 26 25 24 24 24 23 21 20 18 16 15 14 13 13 12 12 13 14 16 18 20 21 22 23 24 25 26 27 27 27 27 26 25 24 23 22 21 22 24 26 28 27 26 24 23 21 19 17 19 23 26 27 27 26 25 25 25
16 18 20 23 23 22 22 24 23 18 16 22 23 22 24 25 24 25 29 28 22 18 17 18 20 20 21 21 19 19 18 17 16 16 16 15 15 14 12 12 11 11 11 12 13 14 15 17 19 20 21 22 23 24 25 26 27 26 26 25 25 24 23 22 21 20 21 22 24 24 24 23 23 22 20 20 19 17 18 21 23 25 26 26 26 25 25
16 19 21 23 25 26 27 29 31 27 19 16 16 13 13 16 17 19 23 25 22 14 8 9 12 13 13 13 11 9 8 7 7 8 9 8 8 9 11 13 15 16 16 16 18 19 21 21 21 22 23 24 25 26 26 26 26 25 24 23 21 20 20 21 20 20 21 21 21 21 20 20 20 20 19 19 19 19 19 21 22 23 24 25 25 25 23
17 18 19 23 26 28 29 32 33 32 27 22 18 15 12 14 14 14 15 17 18 15 11 9 9 9 9 9 8 6 5 7 9 10 11 12 12 12 13 15 17 19 20 21 21 21 22 23 23 24 24 25 25 25 26 25 24 23 22 21 20 19 20 20 20 20 20 21 20 20 19 18 18 18 19 19 20 20 21 22 23 23 23 23 22 21 20
17 18 21 27 30 29 29 32 32 30 29 28 26 23 19 17 16 14 13 12 14 16 18 17 14 13 13 14 14 12 11 10 10 12 13 12 11 11 13 15 16 19 22 24 22 20 20 21 22 23 23 23 24 24 24 23 21 20 20 20 20 20 20 20 20 20 21 20 20 19 17 16 15 17 19 20 21 22 23 23 22 21 21 20 19 18 19
16 18 22 26 28 28 29 30 29 27 27 27 26 25 24 23 21 21 21 20 20 20 21 20 18 18 18 15 14 14 14 11 10 13 17 18 16 15 15 16 17 18 19 20 19 18 19 20 21 22 22 22 21 21 20 19 18 18 19 19 20 20 21 21 21 21 20 20 19 19 18 17 16 16 18 20 21 22 22 21 20 19 19 19 19 20 20
16 17 19 20 23 26 28 27 24 23 22 22 23 23 22 22 23 25 26 24 21 17 14 11 9 11 12 10 9 11 13 12 11 13 17 20 19 18 17 16 17 17 18 18 19 19 19 20 20 20 20 20 19 18 17 17 17 17 18 19 19 20 21 21 21 21 20 20 19 20 20 19 19 18 18 19 20 20 21 21 20 20 20 21 21 21 21
19 18 20 21 22 23 24 23 22 21 18 17 18 18 18 18 19 19 19 17 15 13 11 8 6 6 7 7 7 9 10 11 11 11 13 15 16 17 17 18 19 20 20 20 19 19 18 19 19 18 19 18 18 17 17 17 18 18 19 20 21 22 22 21 21 21 21 20 20 20 20 20 20 20 19 20 20 21 21 21 22 22 22 21 21 21 21
18 18 20 20 19 18 17 17 18 18 16 15 15 15 15 15 16 15 14 14 13 13 11 9 7 7 6 7 8 9 10 12 13 14 15 17 18 18 19 20 21 22 21 20 19 18 18 18 18 19 19 19 18 18 18 18 19 20 20 22 23 23 22 22 21 21 22 21 20 20 20 21 20 20 20 20 21 22 22 23 22 22 21 21 22 22 22
12 14 17 18 18 17 17 17 17 17 17 16 16 15 14 14 14 13 10 8 7 6 5 6 6 7 9 10 11 13 14 15 17 18 19 20 21 21 21 22 22 22 21 20 20 19 19 19 19 19 20 20 20 20 19 20 21 22 22 23 24 24 23 23 23 23 23 23 22 21 21 21 21 21 20 20 22 23 23 23 22 21 21 23 24 25 24
15 15 16 17 16 15 14 13 12 12 12 12 12 11 10 9 9 7 4 3 5 5 6 7 9 11 13 14 15 16 17 18 20 21 21 22 23 23 22 22 22 21 21 21 21 20 20 20 20 20 20 21 21 21 21 22 23 24 24 24 25 25 26 26 26 25 24 24 24 23 22 22 23 22 21 21 22 22 23 22 22 23 24 25 26 27 29
18 18 18 17 16 15 13 11 10 8 7 7 7 4 1 2 3 3 4 7 9 9 10 12 14 14 15 15 16 17 18 19 20 20 21 21 22 22 22 22 22 22 22 22 22 22 22 22 22 22 22 22 22 22 23 23 24 25 26 26 26 27 27 25 24 23 22 22 22 22 20 20 21 22 22 22 22 22 23 23 24 25 25 27 30 32 31
16 16 15 14 14 13 11 10 8 6 6 6 6 4 5 6 7 7 7 8 10 12 13 14 15 15 15 16 16 17 17 18 19 19 20 20 21 21 22 22 22 22 23 23 23 24 25 25 25 25 24 23 23 23 23 23 24 25 26 27 27 27 26 23 21 21 21 21 21 20 19 19 19 21 22 23 23 24 25 26 27 28 29 31 33 31 28
14 13 12 11 10 10 9 7 5 4 3 3 3 5 7 8 8 8 8 9 11 12 13 14 15 15 15 15 15 16 16 16 17 17 18 18 18 19 20 20 21 21 22 22 22 24 25 25 26 27 26 25 23 23 22 22 22 23 24 24 25 25 24 22 21 21 20 20 20 19 18 18 20 21 22 22 24 25 27 28 29 30 30 30 29 26 25
10 9 8 7 6 5 5 5 5 4 3 2 3 4 6 7 8 8 8 9 10 10 11 12 13 13 13 13 13 13 13 14 14 14 15 15 16 16 17 18 18 19 19 19 20 21 21 22 23 24 23 22 21 20 21 22 21 21 21 22 23 23 23 22 22 21 20 20 20 20 20 20 21 21 22 23 24 25 26 27 27 26 25 25 25 26 26
6 5 5 5 5 5 5 5 5 5 4 3 3 3 3 4 5 5 6 7 7 8 8 9 9 10 10 10 10 10 10 10 11 12 12 12 13 14 14 15 15 15 15 16 15 15 16 17 17 17 17 18 18 18 20 21 19 18 19 21 21 21 21 21 21 21 20 19 20 21 21 20 20 20 21 21 22 23 23 24 23 23 23 24 25 25 24
5 5 6 6 6 6 6 6 6 5 4 4 3 3 2 2 2 2 3 3 4 5 6 6 6 6 7 7 7 7 7 8 9 9 9 10 10 11 10 10 10 9 9 9 9 9 10 11 11 12 14 15 16 17 18 18 17 17 18 20 21 21 21 22 21 21 20 19 19 20 20 19 18 19 20 21 21 22 23 23 22 23 23 22 21 20 20
7 7 7 7 7 7 7 7 7 7 6 4 3 3 3 3 2 2 2 2 2 3 3 3 3 4 4 5 5 6 6 6 7 7 7 7 7 7 7 6 6 5 5 4 4 5 6 7 8 10 12 14 15 15 16 17 17 18 18 19 20 20 21 21 20 19 19 18 18 18 19 19 19 20 21 22 22 22 23 22 22 22 21 20 19 19 19
8 8 8 7 7 7 6 7 7 7 7 7 5 4 3 2 2 1 1 1 2 2 3 3 3 3 3 3 3 4 4 4 4 4 4 4 4 4 3 3 3 3 2 1 1 2 4 5 7 8 10 11 12 14 15 16 17 17 16 17 18 18 18 18 18 18 18 17 17 18 19 19 20 21 21 21 21 21 21 22 21 21 20 19 19 18 18
8 8 8 7 6 5 5 5 5 6 6 7 6 6 5 4 3 2 2 1 1 2 2 2 2 2 2 2 1 1 2 2 2 2 2 1 1 1 2 2 2 2 2 2 1 1 3 4 5 6 7 9 10 12 13 14 14 13 14 15 15 15 14 15 16 16 17 17 17 19 19 19 19 19 19 19 19 20 20 20 20 19 19 18 18 18 18
8 8 8 7 6 5 4 4 4 4 4 5 5 5 5 5 5 5 5 4 3 3 3 3 3 3 3 3 3 3 3 3 3 4 4 4 4 4 4 3 3 4 4 4 3 1 1 2 3 4 6 7 8 8 9 10 10 10 11 12 12 12 12 13 15 16 16 17 17 18 17 16 17 17 17 17 18 19 19 19 19 19 18 18 19 19 19
8 8 8 8 7 7 6 5 4 4 4 3 3 3 3 4 4 5 5 4 4 4 4 4 4 4 4 4 4 4 4 4 4 4 4 4 4 4 3 3 4 4 4 4 3 1 0 1 2 3 4 5 6 6 7 8 8 9 10 11 12 13 14 15 16 16 16 16 16 16 15 15 16 16 17 17 17 18 19 19 19 19 19 20 20 21 21
8 8 8 8 9 9 8 6 5 4 3 2 1 2 2 2 2 2 2 2 3 3 3 4 4 4 4 4 3 3 3 3 3 3 2 2 2 3 3 2 2 1 1 2 1 1 2 2 3 3 4 5 6 6 7 8 9 10 11 12 13 14 15 15 15 15 14 14 14 15 15 15 16 16 17 17 18 19 20 20 20 20 20 20 20 20 20
7 8 8 8 9 10 10 8 6 4 2 1 2 2 2 2 2 2 2 2 2 2 3 3 3 3 2 2 2 3 3 3 4 4 3 3 3 4 4 3 3 3 3 2 2 4 5 5 5 5 5 6 7 8 9 10 11 12 13 13 13 13 13 13 13 14 14 14 14 15 15 15 16 17 18 18 19 20 20 21 21 21 21 20 20 19 18
7 7 7 8 9 10 9 7 6 5 4 3 3 3 3 3 3 3 3 3 3 4 4 4 5 5 5 4 3 2 2 2 3 4 5 5 5 5 5 5 4 4 4 4 4 6 7 7 7 7 8 8 9 9 10 11 11 11 12 12 12 13 13 14 14 14 15 15 15 15 15 17 18 19 19 19 19 20 21 21 21 20 20 20 20 20 19
7 7 7 7 8 8 7 6 5 5 5 4 3 3 4 4 4 4 4 4 4 3 4 4 5 5 6 6 5 5 4 3 3 4 5 5 4 5 7 7 6 5 5 5 6 8 8 8 8 8 9 9 9 10 10 10 10 11 11 12 13 13 14 14 15 15 16 16 16 17 18 19 20 20 20 20 20 20 21 21 21 21 20 19 20 21 21
9 9 9 9 8 7 7 5 4 4 4 4 4 4 4 4 4 5 5 5 5 6 6 5 5 5 5 5 6 6 5 5 6 7 7 6 6 6 7 7 7 7 7 7 8 9 10 10 9 9 9 8 9 9 10 11 11 12 13 13 14 14 15 16 16 17 18 18 19 19 20 20 19 19 19 19 20 20 20 20 21 21 21 20 21 23 23
9 10 10 10 8 7 6 5 3 3 4 4 4 4 3 3 4 5 5 5 6 6 6 6 7 7 7 6 6 4 4 5 6 7 7 7 8 8 9 9 9 10 9 9 9 10 11 12 12 11 11 10 10 11 12 13 13 14 15 15 16 16 17 18 18 18 19 20 20 21 22 21 20 20 21 21 22 23 23 23 23 24 24 24 24 24 24
8 10 11 10 8 8 7 6 5 5 4 4 4 4 4 4 4 4 5 5 5 5 5 5 6 6 6 6 6 5 4 5 5 5 5 6 7 8 9 10 11 11 11 11 11 12 13 13 13 13 13 12 13 14 16 17 17 17 18 18 19 19 20 20 20 20 21 22 22 23 24 23 23 23 24 25 25 26 26 26 26 25 24 24 23 23 23
7 9 10 10 8 7 6 6 6 6 7 6 5 4 5 5 4 4 6 7 6 5 4 5 5 5 5 5 5 6 6 6 6 6 6 6 6 7 7 8 9 9 10 11 11 12 13 14 15 16 15 15 15 16 17 18 18 18 19 20 21 22 22 23 23 23 24 24 23 23 24 24 24 24 25 25 25 25 25 25 24 22 21 21 21 22 22
Wind_Direction
233 233 235 233 229 228 227 226 224 224 223 223 225 229 232 233 235 239 236 230 229 230 229 229 231 232 233 237 240 243 247 250 253 256 258 262 264 257 251 245 244 245 227 205 198 200 204 211 216 217 220 223 223 223 222 222 222 223 227 231 235 238 242 245 248 251 253 256 258 258 260 262 262 264 267 267 265 262 263 267 270 273 274 271 273 278 279
235 233 234 235 235 234 231 230 230 229 228 227 228 231 233 234 237 240 240 238 235 231 229 233 237 238 239 246 247 245 245 247 251 253 252 259 267 263 252 243 242 239 217 201 199 200 202 208 213 215 220 222 222 222 223 225 225 226 231 235 237 240 244 247 250 253 255 256 258 258 258 260 261 263 265 267 267 268 269 270 271 272 273 272 274 276 275
237 233 232 234 236 236 234 233 232 232 232 230 229 230 231 233 236 239 240 242 241 235 232 235 238 238 242 247 247 245 244 245 249 251 250 256 267 261 248 241 240 229 208 200 201 200 202 208 212 216 220 220 219 220 221 224 225 227 231 235 238 241 244 248 250 252 254 256 258 260 261 263 265 266 267 268 270 271 271 271 272 272 271 270 269 267 266
237 229 229 231 233 236 237 235 232 231 232 232 231 231 230 231 234 236 237 239 240 238 236 236 236 236 239 242 242 246 247 246 247 251 251 256 264 254 239 235 233 220 206 203 204 201 202 207 212 216 218 217 217 218 220 222 224 227 231 234 237 241 244 247 250 252 256 260 263 266 268 269 270 271 271 272 273 273 272 272 272 270 268 267 263 262 265
241 231 228 230 230 232 234 232 230 229 230 232 234 234 232 231 232 234 236 238 241 240 236 234 235 235 236 237 238 242 245 245 245 248 251 254 254 243 231 227 224 215 208 207 206 204 203 206 211 215 216 217 218 218 219 221 223 226 230 234 238 241 245 249 253 257 262 266 268 270 271 273 273 274 274 274 274 276 278 279 277 274 271 268 264 263 266
242 233 228 231 232 230 230 229 229 229 229 230 233 235 235 233 232 234 237 240 241 238 233 233 236 236 236 239 240 239 240 241 240 243 247 247 242 235 227 222 220 215 210 208 206 204 204 206 211 214 215 216 216 216 218 220 222 226 231 236 241 245 250 255 260 264 266 268 271 273 275 278 278 278 279 278 278 279 280 281 280 277 273 267 262 261 262
241 227 217 222 231 230 230 232 231 230 231 232 234 237 238 236 235 235 237 238 239 237 234 233 234 234 234 237 237 235 237 239 239 241 242 236 231 231 229 224 221 217 213 210 206 204 204 207 210 214 215 216 215 215 217 219 222 228 234 241 247 252 258 262 264 266 267 270 276 281 284 285 285 283 281 280 281 280 279 278 277 274 268 263 258 255 253
238 229 221 227 237 234 234 239 238 233 232 232 235 238 238 236 236 237 237 237 238 237 234 232 233 233 232 231 226 225 230 234 236 238 238 233 230 233 233 228 223 219 217 213 207 205 206 208 211 214 216 216 215 216 218 222 227 234 241 248 254 258 263 265 263 263 267 276 285 291 293 293 291 286 282 280 280 279 278 276 274 268 262 257 250 243 243
229 241 238 236 240 244 242 238 235 233 227 224 228 237 239 236 235 236 237 237 235 234 233 236 238 236 233 228 223 220 224 228 231 235 237 236 236 238 240 238 229 223 222 216 208 208 211 211 214 216 215 215 216 218 223 227 232 240 247 252 257 262 264 262 260 264 275 287 296 301 303 303 298 289 283 280 279 279 278 276 273 268 259 251 242 236 236
213 242 250 238 236 240 228 222 240 246 236 225 224 231 237 235 234 234 234 235 234 232 232 235 237 235 234 230 223 221 224 226 229 234 237 239 240 241 244 246 238 230 227 218 208 208 212 213 215 217 215 216 219 222 226 229 234 242 249 254 259 261 260 259 261 271 283 294 302 307 309 308 301 292 285 281 281 280 279 276 273 267 256 245 238 234 233
217 224 242 244 242 227 200 233 274 282 269 249 235 234 240 238 235 234 232 233 234 231 228 232 234 234 234 231 224 223 227 227 229 234 237 239 242 242 242 245 243 237 232 222 210 208 211 213 214 215 215 217 221 223 225 228 234 243 250 254 259 260 260 262 268 278 288 297 303 308 310 309 302 292 286 284 283 282 280 279 274 266 254 242 236 235 234
216 217 228 241 249 247 244 265 283 295 295 275 244 234 242 238 235 236 234 233 232 228 224 227 231 232 232 232 228 228 230 229 230 233 235 237 240 240 238 241 244 241 235 224 213 209 211 213 213 213 216 219 222 223 224 229 236 244 250 255 261 262 263 267 273 283 292 299 304 307 309 308 300 290 286 285 284 283 281 279 274 265 255 244 237 235 234
215 217 225 233 240 250 260 271 282 292 296 277 235 230 240 235 232 235 234 231 230 227 222 223 229 232 232 231 231 231 230 229 227 227 229 232 233 232 233 237 241 237 229 219 212 210 212 214 215 217 219 221 222 223 225 231 238 244 252 261 267 267 267 272 281 289 295 300 303 305 306 303 295 286 283 284 284 282 281 277 271 265 257 248 239 234 230
217 219 227 232 233 241 251 264 284 290 278 246 233 237 240 239 237 237 236 230 224 222 219 218 223 230 233 233 233 233 231 228 224 222 224 228 229 230 232 233 230 224 217 211 208 210 214 216 218 219 220 221 221 223 227 233 238 246 258 268 272 271 272 278 286 293 297 300 301 302 300 297 289 282 280 282 282 281 278 273 268 263 256 246 236 229 225
213 219 224 229 229 232 238 253 286 292 265 244 245 244 245 250 249 247 247 240 229 223 220 216 218 224 230 234 235 232 228 224 222 222 223 224 226 228 227 219 212 209 207 206 207 210 214 215 216 216 216 218 220 224 230 236 242 252 263 272 275 275 276 282 288 293 296 298 298 297 295 291 284 278 278 280 281 278 274 269 265 259 252 242 231 224 225
209 216 218 220 220 221 228 244 282 297 279 260 253 251 254 262 261 255 255 254 243 232 225 220 217 218 223 229 230 228 225 222 221 220 219 218 219 218 212 205 201 201 203 204 206 207 208 208 207 208 211 216 221 227 234 242 251 261 268 275 277 277 278 282 287 291 293 293 292 291 289 284 278 274 275 277 277 273 269 265 260 253 246 238 229 226 230
215 221 224 229 231 232 236 246 278 300 292 269 253 251 255 263 266 262 260 257 248 237 230 225 217 211 212 217 217 217 215 211 206 202 198 198 197 195 192 191 190 191 195 196 195 195 196 198 203 209 217 223 227 233 240 249 260 267 270 273 274 275 278 283 287 289 289 288 286 284 281 277 272 269 270 273 274 271 266 261 255 247 240 233 229 230 235
221 227 236 239 240 243 243 246 271 291 287 260 242 245 251 255 259 259 253 241 225 213 211 209 201 194 194 195 192 191 189 185 181 180 180 179 180 180 180 180 179 180 183 186 188 192 197 204 214 222 228 231 235 242 250 257 263 265 267 271 274 277 282 285 286 286 285 284 282 279 275 270 266 264 265 268 271 270 265 258 250 243 236 232 232 235 239
219 227 240 241 243 246 240 241 262 278 267 229 215 224 230 231 235 237 226 205 184 175 177 180 178 176 177 176 172 170 170 169 169 170 172 173 175 177 178 179 179 183 189 196 203 208 212 216 221 226 232 237 243 250 256 259 262 266 271 276 279 283 286 286 285 285 284 283 280 275 269 265 261 260 261 264 266 267 262 253 245 238 233 231 233 235 239
214 224 240 240 243 244 238 238 248 238 173 153 145 140 144 152 163 182 180 169 165 165 165 163 161 160 161 162 162 162 163 165 166 167 169 170 171 173 176 179 183 189 195 200 207 214 220 225 229 233 239 244 248 254 259 263 268 274 279 283 286 288 288 287 287 286 284 282 278 272 266 262 260 258 259 261 263 261 255 247 239 232 229 229 231 233 237
215 224 230 226 225 232 235 230 204 154 136 134 134 132 134 136 138 144 149 150 150 149 148 149 152 153 153 155 157 158 158 160 163 166 167 167 167 170 173 174 178 184 190 195 202 210 218 224 230 236 244 250 256 262 268 272 276 281 285 288 290 290 289 288 287 285 282 280 276 271 268 264 262 259 258 258 259 257 252 246 237 230 227 229 232 235 239
204 209 210 206 201 205 217 209 174 143 131 131 134 136 138 137 135 140 147 147 145 141 138 140 145 148 148 149 153 155 155 156 159 163 165 167 168 170 174 177 182 189 197 206 215 221 226 231 238 247 253 260 267 272 275 279 282 285 288 290 290 289 288 285 282 279 277 275 272 269 267 266 264 259 254 254 255 252 248 243 234 228 228 233 236 237 240
203 203 201 202 200 193 192 188 168 144 133 136 140 140 141 139 136 141 146 146 142 141 139 139 142 144 145 146 149 153 154 155 158 162 166 171 175 179 185 193 202 209 216 224 232 241 249 255 262 267 269 273 277 279 281 283 285 287 288 288 287 285 282 279 276 274 272 271 269 267 266 265 260 254 250 252 253 248 244 239 233 231 235 240 241 241 245
215 213 209 206 206 204 200 195 191 181 157 146 146 146 147 147 145 145 149 149 147 145 146 147 147 147 147 148 150 154 157 159 163 167 172 179 186 196 208 220 230 240 249 257 262 268 274 276 276 277 279 282 283 285 286 286 287 286 284 282 280 278 276 274 273 272 270 268 266 264 263 259 253 250 250 248 244 242 242 240 236 236 239 241 243 247 255
221 224 224 216 210 210 212 213 220 230 223 185 167 166 166 165 163 157 156 159 161 162 168 170 165 162 160 158 159 162 171 183 192 197 206 217 228 244 255 259 263 267 272 277 279 278 280 282 282 282 284 286 286 287 287 286 284 281 278 275 273 272 270 269 269 267 265 262 260 260 260 256 251 250 247 239 234 238 242 240 237 238 240 243 247 254 260
221 221 222 216 208 208 213 215 218 223 226 227 236 245 225 203 198 190 179 176 180 191 213 223 211 204 204 205 213 233 260 275 273 264 260 263 270 275 274 274 275 275 274 277 281 281 279 280 282 283 284 284 284 284 282 280 277 274 272 270 266 264 263 263 262 259 256 255 255 257 259 258 253 247 242 236 235 238 239 237 237 240 244 248 253 257 260
223 217 212 210 206 204 207 210 210 211 216 226 241 249 242 230 225 219 217 220 219 222 232 240 239 241 246 245 245 253 267 275 270 259 253 258 272 281 279 278 280 277 273 272 274 277 278 278 279 280 279 278 278 276 274 273 271 269 268 265 262 260 260 258 256 253 252 252 253 254 255 254 250 243 239 238 240 241 242 243 245 248 250 252 254 257 260
220 216 212 209 204 199 199 203 206 208 212 216 223 231 237 242 246 246 251 257 254 245 242 244 244 247 254 255 253 257 261 260 255 253 255 261 271 279 279 276 274 274 273 271 272 275 277 276 275 275 273 272 271 268 266 265 264 262 261 260 260 260 259 257 256 255 254 253 253 253 253 252 249 245 243 243 245 248 249 251 253 253 253 253 254 258 264
196 201 203 200 194 191 192 194 194 196 202 208 213 219 226 234 243 248 252 255 253 242 229 223 226 236 244 248 249 251 253 252 256 262 261 259 259 262 265 267 268 269 271 271 272 273 273 272 272 270 268 266 264 260 259 257 254 253 253 254 255 255 253 253 254 255 255 255 256 255 253 252 251 251 251 251 250 250 250 250 250 250 251 253 258 263 269
160 168 175 174 172 175 177 175 170 170 175 184 192 200 205 210 216 219 218 216 212 203 190 182 183 195 205 218 227 233 239 246 252 256 253 250 250 254 258 261 264 265 267 268 269 269 268 267 266 264 263 262 258 253 251 249 247 247 249 250 251 250 249 249 252 256 258 260 259 256 255 254 254 254 253 252 250 249 248 248 249 251 253 257 262 269 276
145 148 151 152 151 154 157 153 149 147 148 155 168 179 186 191 195 194 189 186 185 183 182 188 200 210 222 238 245 249 255 258 260 260 258 257 257 259 261 262 264 266 266 266 264 262 261 261 260 259 260 260 255 249 246 244 245 247 249 250 251 251 250 251 255 260 263 263 260 258 257 256 256 254 251 250 249 247 247 249 251 254 259 264 270 275 280
130 137 137 134 130 132 140 146 146 143 140 143 152 161 165 173 181 182 179 186 198 201 202 213 231 251 262 264 263 265 265 264 265 266 265 265 265 264 264 265 264 264 264 263 261 259 257 257 257 258 259 259 256 251 246 244 244 246 249 252 256 257 256 256 260 263 264 263 263 262 260 258 257 253 249 247 248 247 249 252 255 261 267 272 275 278 280
88 97 104 102 94 91 102 118 127 129 127 124 127 138 151 166 173 168 170 235 259 272 279 273 271 273 272 269 268 268 266 266 266 266 266 267 268 267 267 267 265 264 264 263 263 262 261 259 259 258 257 257 256 253 248 246 246 247 249 253 257 259 260 260 262 264 264 264 265 265 262 259 257 254 250 247 246 248 251 255 260 266 272 275 278 281 283
66 65 65 62 53 48 51 58 59 51 43 44 51 59 53 259 253 263 280 277 273 276 279 278 276 274 271 269 268 266 264 265 266 265 266 267 268 268 269 269 269 269 268 267 267 266 265 263 260 258 255 254 253 252 249 246 246 248 251 253 256 259 261 261 261 261 261 262 264 262 259 256 255 253 249 245 245 249 254 259 264 269 274 278 282 286 287
61 57 51 43 34 28 28 32 31 19 7 3 355 327 297 285 278 274 272 268 267 268 271 271 272 271 269 267 266 265 266 267 267 268 269 270 270 271 271 270 270 269 268 268 267 267 265 264 261 259 255 253 251 250 248 245 245 247 250 252 255 258 259 259 258 259 259 259 260 258 255 252 251 250 249 248 249 254 259 263 267 272 277 281 283 285 286
56 52 45 35 23 15 13 14 10 2 0 349 309 282 275 273 272 271 267 261 261 263 266 269 271 272 273 272 272 272 272 272 270 271 270 269 269 269 268 268 268 267 266 265 264 263 262 260 259 257 255 252 250 249 248 246 244 244 245 247 250 253 255 256 259 261 260 257 255 252 248 245 246 249 251 253 255 258 262 266 271 275 278 281 282 283 284
48 43 37 32 22 10 8 8 4 359 356 334 292 276 272 271 272 272 268 264 265 267 268 270 272 274 275 277 277 276 275 274 272 271 269 267 267 267 267 268 269 268 267 265 262 259 257 256 253 252 251 249 247 246 246 246 245 244 244 244 246 249 252 255 258 259 258 255 252 248 244 244 247 250 253 256 260 263 266 270 274 276 278 280 282 283 283
52 50 50 53 49 35 25 19 13 9 8 0 342 320 299 286 281 277 273 273 275 275 273 274 277 278 278 279 280 279 278 277 275 272 272 271 271 272 273 275 276 274 272 269 263 259 257 255 251 247 245 243 241 240 242 245 246 244 243 244 244 245 248 249 250 250 251 250 247 245 244 247 250 254 258 263 268 271 273 275 277 279 279 279 279 279 279
76 72 68 65 57 45 38 31 23 19 17 12 8 4 359 351 334 309 293 286 283 278 274 276 279 280 281 283 284 283 282 281 280 281 281 281 281 283 285 288 288 286 282 275 267 259 255 253 248 240 234 234 236 236 238 241 241 237 236 239 239 238 239 239 240 242 244 243 241 240 243 248 255 261 266 270 273 275 276 277 277 276 275 274 275 277 279
79 70 62 56 49 44 41 36 33 33 30 24 20 24 26 27 18 7 357 340 316 302 296 295 295 294 295 297 297 295 294 293 292 292 292 293 295 298 299 301 304 304 299 288 274 261 249 239 233 231 232 232 232 233 235 238 237 235 234 232 231 232 233 233 235 238 241 241 240 243 247 252 259 265 270 273 275 276 277 276 275 274 274 275 275 276 277
69 62 60 55 50 48 46 42 40 42 40 39 41 41 38 37 36 28 18 3 344 333 322 314 311 308 304 300 296 296 298 301 303 304 303 301 300 301 305 315 326 336 345 348 283 238 233 225 220 224 229 229 229 231 235 238 240 239 234 227 223 225 228 231 234 238 241 242 246 251 254 258 263 268 272 275 277 277 278 278 278 279 281 282 282 282 281
70 65 62 56 50 51 54 54 54 51 46 48 52 53 53 55 56 52 52 44 16 356 338 328 327 327 325 324 327 331 336 345 354 358 0 0 355 0 11 20 26 33 38 45 76 160 208 216 215 220 229 231 231 234 238 241 242 237 227 220 221 227 232 235 238 243 246 250 256 261 265 268 272 274 275 276 277 278 280 281 283 284 286 287 288 289 288
71 65 59 52 47 45 43 48 57 59 55 53 54 55 58 60 58 56 57 56 50 44 36 24 20 23 23 26 30 25 21 27 36 38 38 39 44 52 60 60 59 68 74 76 78 91 199 214 210 217 227 230 229 227 227 230 229 222 215 218 227 237 244 247 248 252 256 261 265 268 271 273 274 275 276 278 280 282 283 285 287 289 292 293 292 291 289
64 59 53 46 40 37 33 33 40 49 55 60 61 58 58 56 51 51 52 49 44 44 41 34 32 32 29 28 28 22 14 17 29 35 32 29 30 31 38 46 54 62 71 78 84 87 234 206 192 197 209 215 216 214 213 216 218 218 220 228 237 246 253 257 259 261 262 262 263 264 266 268 271 275 277 279 281 283 284 286 287 288 290 289 288 287 286
51 48 46 41 34 30 30 35 42 46 51 55 46 37 42 43 34 30 29 25 18 15 14 14 16 18 15 14 18 17 7 1 8 11 8 4 353 334 328 342 358 358 19 62 90 245 258 236 206 203 208 211 216 219 221 226 231 235 240 245 249 253 258 260 259 258 257 256 257 261 264 268 271 274 276 278 280 282 283 284 285 285 284 282 281 280 280
40 35 35 29 21 20 26 36 41 38 28 25 23 14 2 356 345 326 316 319 317 311 315 317 314 315 322 333 349 1 4 0 353 345 336 331 323 309 302 301 293 281 276 261 241 256 261 255 243 237 234 231 231 233 236 240 243 246 248 251 253 254 254 252 250 251 253 256 259 264 268 270 272 274 276 279 281 281 280 281 282 282 281 279 277 276 276
37 31 26 17 13 17 23 24 20 16 16 18 16 10 5 0 350 335 327 323 311 297 290 286 283 283 287 291 299 316 338 346 335 325 318 318 318 311 305 301 294 287 285 275 258 255 256 253 249 247 244 242 242 244 245 247 250 251 252 253 252 251 250 251 253 256 259 262 266 269 270 272 274 276 278 279 279 278 278 278 279 279 279 278 277 278 279
36 31 25 18 16 18 16 4 1 14 22 19 10 12 16 14 8 3 359 355 347 337 327 315 299 289 286 286 285 280 269 258 262 274 282 287 291 290 290 289 286 285 289 285 275 268 264 259 256 253 250 248 249 249 249 250 252 252 252 252 252 253 254 256 258 261 263 266 268 270 271 273 274 275 275 276 278 280 281 282 283 282 281 280 280 281 282
32 27 23 19 15 16 17 14 13 19 22 21 20 22 22 16 13 12 11 14 21 24 20 7 352 337 322 307 297 289 282 274 266 261 261 262 262 263 271 278 280 277 274 273 272 271 270 268 266 266 265 263 262 262 260 259 258 258 258 258 257 257 258 259 260 262 265 267 269 270 272 274 275 275 276 278 280 281 282 284 285 285 284 284 285 285 284
23 16 13 11 7 6 13 17 9 1 9 23 27 22 21 19 9 1 1 12 23 26 22 12 6 2 356 346 334 320 302 291 285 279 274 272 270 264 261 262 266 266 264 260 260 265 271 274 274 273 271 268 265 265 265 265 264 264 264 264 264 263 262 262 263 264 266 268 270 273 275 276 277 278 280 282 283 282 282 282 283 282 282 283 284 283 282
11 5 4 5 1 357 358 359 350 340 345 1 8 4 4 9 1 345 339 348 2 8 5 359 354 352 349 345 341 336 323 308 301 297 291 287 285 280 273 270 270 272 272 268 262 260 263 267 269 269 270 269 266 265 267 269 269 270 270 270 269 268 267 266 267 268 269 271 273 275 276 277 279 281 283 284 285 285 284 284 283 281 281 281 282 283 281
347 347 349 348 342 340 346 355 351 335 325 327 334 330 325 330 339 327 316 318 324 326 325 328 332 330 324 321 325 329 327 323 320 314 302 293 291 291 290 288 285 284 284 282 275 267 262 261 262 264 265 264 262 262 264 267 269 271 273 275 275 274 272 271 270 270 271 272 273 275 278 280 282 283 285 286 287 286 286 287 288 286 285 285 286 285 284
Height
3067 3069 3070 3071 3072 3073 3074 3075 3076 3078 3080 3081 3081 3080 3082 3085 3083 3081 3087 3091 3090 3093 3097 3099 3101 3104 3106 3108 3110 3112 3114 3115 3115 3115 3116 3116 3117 3118 3120 3121 3121 3122 3124 3126 3127 3129 3130 3132 3134 3136 3137 3139 3140 3142 3143 3145 3146 3147 3149 3150 3152 3153 3153 3154 3155 3156 3157 3157 3157 3157 3157 3157 3157 3157 3156 3154 3157 3160 3160 3158 3156 3155 3156 3157 3156 3155 3152
3064 3065 3066 3067 3068 3069 3070 3071 3072 3074 3075 3076 3077 3078 3079 3081 3080 3081 3085 3086 3085 3089 3093 3095 3099 3101 3103 3105 3107 3109 3111 3112 3112 3112 3112 3113 3114 3114 3116 3117 3118 3119 3121 3123 3124 3126 3128 3129 3131 3133 3134 3136 3138 3139 3141 3142 3144 3145 3146 3148 3149 3150 3151 3152 3152 3153 3153 3154 3154 3153 3153 3153 3153 3153 3151 3150 3153 3156 3154 3153 3152 3151 3152 3151 3151 3150 3147
3059 3060 3062 3063 3064 3064 3064 3066 3067 3069 3070 3071 3072 3073 3075 3077 3076 3079 3082 3081 3081 3084 3088 3091 3094 3097 3099 3100 3102 3104 3107 3108 3109 3108 3108 3109 3110 3110 3112 3113 3115 3116 3118 3119 3121 3123 3125 3127 3128 3130 3131 3133 3135 3136 3138 3139 3141 3143 3144 3145 3147 3148 3149 3149 3149 3150 3150 3150 3150 3150 3149 3149 3149 3148 3146 3145 3147 3150 3149 3147 3146 3147 3147 3146 3145 3143 3141
3054 3055 3057 3058 3060 3061 3060 3060 3062 3064 3065 3066 3067 3068 3070 3071 3072 3075 3076 3074 3075 3080 3085 3087 3089 3092 3094 3095 3097 3100 3102 3104 3105 3104 3104 3105 3106 3107 3108 3110 3111 3113 3114 3116 3118 3120 3122 3123 3125 3126 3128 3130 3132 3133 3135 3137 3139 3140 3141 3143 3144 3145 3146 3146 3146 3147 3147 3147 3147 3146 3146 3146 3145 3143 3142 3141 3141 3143 3143 3142 3142 3142 3141 3140 3139 3137 3136
3051 3053 3054 3055 3057 3056 3053 3054 3057 3059 3060 3062 3062 3063 3064 3066 3068 3069 3068 3068 3071 3077 3080 3081 3083 3085 3087 3089 3092 3096 3098 3099 3101 3100 3101 3101 3102 3103 3105 3106 3108 3109 3111 3113 3115 3116 3118 3120 3122 3123 3125 3127 3129 3131 3133 3134 3135 3137 3138 3140 3141 3142 3143 3143 3144 3144 3144 3143 3143 3142 3142 3141 3140 3139 3138 3137 3137 3137 3137 3137 3136 3135 3134 3133 3133 3132 3133
3050 3051 3052 3054 3053 3048 3046 3050 3053 3054 3055 3057 3058 3058 3060 3062 3063 3063 3064 3066 3070 3073 3074 3076 3078 3079 3081 3083 3087 3091 3093 3095 3096 3096 3097 3098 3098 3099 3101 3103 3104 3106 3108 3110 3112 3114 3116 3117 3119 3121 3123 3125 3127 3128 3129 3131 3133 3135 3136 3137 3138 3139 3140 3140 3140 3141 3140 3140 3139 3138 3137 3137 3136 3135 3134 3133 3132 3132 3132 3131 3130 3129 3128 3127 3127 3128 3129
3049 3049 3052 3052 3048 3044 3046 3049 3049 3050 3052 3054 3055 3055 3056 3058 3059 3060 3062 3064 3066 3069 3070 3072 3074 3075 3077 3079 3081 3085 3087 3089 3091 3092 3093 3094 3095 3096 3098 3099 3101 3103 3105 3107 3109 3110 3112 3113 3115 3118 3120 3121 3123 3124 3126 3128 3130 3132 3133 3134 3135 3136 3136 3136 3137 3137 3137 3136 3135 3134 3134 3133 3132 3131 3130 3129 3128 3127 3127 3126 3125 3124 3123 3122 3122 3123 3124
3047 3048 3049 3047 3043 3043 3047 3047 3046 3048 3049 3051 3051 3051 3051 3054 3055 3057 3058 3060 3063 3065 3067 3069 3071 3071 3073 3074 3076 3078 3081 3084 3086 3088 3089 3090 3091 3093 3095 3096 3098 3100 3102 3104 3106 3107 3109 3110 3112 3114 3116 3118 3119 3122 3124 3126 3127 3129 3130 3131 3131 3132 3132 3133 3133 3133 3133 3132 3131 3130 3130 3129 3128 3127 3125 3124 3123 3122 3122 3121 3121 3120 3118 3117 3118 3119 3120
3044 3046 3047 3044 3042 3043 3044 3044 3044 3045 3045 3046 3047 3046 3046 3049 3052 3053 3054 3056 3059 3061 3063 3066 3067 3067 3069 3069 3070 3073 3075 3078 3081 3083 3085 3087 3088 3089 3091 3093 3095 3097 3098 3101 3103 3104 3106 3108 3109 3111 3112 3114 3117 3119 3121 3122 3124 3125 3126 3127 3128 3128 3129 3129 3129 3129 3129 3128 3127 3126 3125 3124 3123 3122 3120 3119 3118 3118 3117 3116 3116 3115 3114 3114 3114 3115 3116
3042 3045 3045 3043 3039 3039 3040 3042 3042 3042 3041 3042 3042 3042 3042 3044 3047 3049 3050 3052 3054 3056 3060 3061 3062 3063 3064 3064 3065 3068 3071 3073 3076 3079 3081 3082 3084 3086 3087 3089 3091 3093 3095 3097 3099 3101 3102 3104 3106 3108 3110 3112 3114 3116 3117 3119 3121 3122 3123 3124 3124 3125 3125 3126 3126 3126 3125 3125 3124 3123 3121 3120 3119 3117 3116 3114 3114 3113 3113 3112 3111 3111 3110 3110 3110 3111 3112
3040 3042 3042 3040 3036 3035 3038 3040 3040 3040 3040 3039 3040 3040 3038 3040 3044 3045 3046 3047 3049 3052 3055 3057 3057 3059 3059 3059 3062 3065 3066 3069 3072 3074 3076 3078 3080 3082 3084 3085 3087 3089 3091 3093 3095 3097 3099 3100 3103 3105 3107 3109 3111 3112 3114 3116 3117 3118 3119 3120 3121 3122 3122 3122 3122 3122 3122 3121 3120 3119 3118 3116 3114 3113 3112 3111 3110 3109 3109 3108 3107 3107 3107 3107 3107 3108 3110
3036 3037 3037 3037 3036 3035 3035 3036 3037 3038 3038 3038 3040 3038 3034 3035 3039 3039 3040 3043 3044 3048 3051 3052 3053 3054 3054 3056 3059 3061 3062 3065 3067 3069 3072 3073 3075 3077 3079 3081 3083 3085 3087 3089 3091 3093 3095 3098 3100 3102 3104 3106 3108 3109 3111 3112 3113 3114 3116 3117 3118 3118 3118 3118 3118 3118 3118 3118 3117 3115 3114 3112 3111 3109 3108 3107 3107 3106 3105 3104 3104 3103 3104 3104 3105 3106 3107
3032 3033 3033 3033 3034 3033 3033 3034 3035 3036 3037 3037 3036 3033 3030 3032 3033 3033 3035 3038 3040 3043 3045 3047 3048 3050 3051 3053 3055 3056 3058 3060 3062 3064 3066 3068 3070 3072 3074 3077 3079 3081 3082 3085 3087 3090 3093 3095 3097 3099 3101 3103 3104 3106 3107 3108 3110 3111 3112 3113 3113 3114 3114 3114 3114 3114 3114 3114 3113 3112 3110 3109 3107 3106 3105 3104 3103 3103 3102 3101 3101 3101 3101 3102 3103 3104 3105
3028 3030 3030 3031 3031 3030 3030 3032 3033 3034 3035 3034 3031 3028 3028 3029 3029 3030 3031 3032 3034 3037 3039 3041 3044 3045 3046 3048 3050 3051 3053 3055 3057 3059 3061 3063 3065 3067 3069 3072 3075 3076 3079 3081 3084 3087 3089 3092 3094 3096 3098 3099 3101 3102 3104 3105 3106 3108 3108 3109 3109 3109 3110 3111 3111 3110 3110 3110 3109 3108 3107 3105 3104 3102 3101 3101 3100 3099 3099 3099 3098 3099 3100 3100 3101 3102 3103
3025 3027 3027 3028 3026 3024 3025 3029 3032 3032 3031 3030 3027 3026 3026 3026 3026 3027 3027 3028 3029 3031 3032 3035 3037 3039 3042 3044 3045 3047 3049 3051 3053 3055 3056 3059 3061 3063 3066 3068 3071 3073 3075 3078 3080 3083 3085 3088 3090 3093 3094 3096 3098 3099 3101 3102 3103 3104 3105 3105 3105 3105 3106 3107 3107 3107 3106 3106 3106 3105 3103 3102 3100 3099 3098 3097 3097 3097 3096 3096 3096 3097 3097 3098 3098 3099 3099
3020 3021 3021 3021 3020 3020 3022 3026 3029 3029 3028 3026 3026 3025 3024 3024 3024 3024 3024 3024 3025 3026 3027 3030 3032 3034 3037 3039 3041 3043 3045 3047 3049 3050 3053 3055 3057 3059 3062 3065 3067 3070 3072 3075 3077 3080 3082 3085 3087 3089 3091 3093 3095 3096 3098 3099 3100 3100 3101 3101 3101 3101 3102 3103 3103 3103 3103 3103 3102 3101 3099 3098 3097 3096 3095 3094 3094 3094 3094 3094 3094 3094 3095 3095 3096 3096 3096
3015 3016 3016 3017 3018 3019 3021 3023 3026 3026 3025 3024 3023 3023 3023 3022 3022 3021 3021 3021 3022 3023 3025 3027 3028 3030 3032 3034 3036 3038 3040 3043 3045 3047 3050 3052 3055 3057 3060 3062 3065 3068 3070 3073 3076 3078 3080 3082 3084 3086 3089 3091 3093 3094 3095 3096 3096 3097 3097 3097 3097 3098 3099 3099 3100 3099 3099 3099 3098 3097 3096 3095 3094 3093 3092 3091 3091 3091 3091 3091 3091 3092 3092 3093 3094 3094 3094
3014 3015 3016 3017 3018 3018 3019 3021 3023 3024 3023 3022 3021 3021 3021 3021 3020 3019 3019 3019 3020 3022 3024 3026 3026 3027 3028 3030 3033 3036 3038 3041 3043 3045 3048 3050 3053 3056 3059 3062 3064 3067 3069 3072 3074 3076 3078 3080 3082 3084 3087 3089 3090 3091 3091 3092 3093 3093 3093 3093 3094 3095 3095 3095 3096 3095 3095 3095 3094 3093 3092 3091 3090 3090 3089 3089 3088 3088 3088 3089 3089 3090 3090 3091 3091 3092 3092
3012 3013 3014 3015 3016 3016 3017 3019 3021 3023 3022 3021 3020 3020 3020 3020 3019 3018 3017 3018 3020 3022 3025 3025 3024 3024 3026 3029 3032 3034 3037 3039 3042 3045 3047 3049 3052 3055 3058 3061 3064 3066 3069 3071 3072 3074 3076 3078 3080 3083 3085 3086 3087 3087 3088 3089 3089 3089 3090 3090 3090 3091 3091 3091 3092 3091 3091 3091 3090 3089 3089 3088 3087 3087 3086 3086 3086 3086 3086 3086 3087 3087 3088 3089 3089 3089 3089
3010 3011 3011 3013 3014 3015 3015 3017 3020 3022 3022 3020 3020 3021 3021 3021 3020 3018 3017 3019 3022 3025 3027 3025 3022 3023 3027 3030 3032 3034 3037 3039 3041 3044 3046 3049 3052 3055 3058 3060 3063 3065 3067 3069 3070 3072 3074 3076 3079 3081 3082 3083 3083 3084 3084 3085 3085 3085 3086 3086 3086 3087 3087 3087 3087 3087 3087 3086 3086 3086 3085 3085 3085 3084 3084 3083 3083 3083 3084 3084 3084 3085 3085 3086 3087 3087 3088
3009 3010 3011 3012 3014 3014 3014 3015 3018 3020 3021 3020 3020 3020 3021 3022 3021 3019 3020 3024 3027 3029 3029 3027 3025 3025 3028 3031 3033 3035 3038 3040 3041 3043 3046 3049 3051 3054 3057 3060 3062 3064 3066 3068 3069 3070 3072 3074 3076 3078 3079 3079 3080 3080 3081 3081 3081 3081 3082 3082 3082 3083 3083 3083 3083 3083 3083 3082 3082 3082 3082 3082 3082 3082 3081 3081 3081 3081 3081 3081 3082 3082 3083 3084 3085 3086 3086
3009 3010 3010 3012 3013 3014 3014 3015 3017 3017 3018 3020 3021 3020 3021 3022 3022 3021 3023 3027 3031 3032 3031 3031 3030 3029 3030 3033 3036 3037 3039 3041 3042 3044 3046 3049 3051 3054 3057 3059 3061 3063 3065 3066 3068 3069 3070 3072 3073 3074 3075 3076 3076 3077 3077 3077 3077 3078 3078 3078 3079 3079 3079 3079 3079 3079 3079 3079 3079 3079 3078 3079 3079 3078 3078 3078 3078 3078 3078 3078 3079 3080 3081 3082 3083 3083 3084
3007 3008 3010 3011 3013 3014 3014 3017 3018 3017 3016 3018 3021 3021 3021 3022 3023 3023 3024 3028 3032 3033 3032 3032 3032 3032 3033 3035 3037 3039 3041 3042 3043 3045 3047 3049 3051 3054 3056 3057 3059 3061 3062 3064 3065 3067 3068 3069 3070 3071 3072 3072 3073 3074 3074 3074 3074 3074 3075 3075 3075 3075 3075 3075 3075 3075 3075 3075 3075 3075 3075 3075 3075 3075 3075 3075 3076 3076 3076 3076 3078 3079 3079 3080 3081 3081 3081
3006 3007 3008 3010 3012 3014 3014 3017 3019 3019 3018 3017 3018 3020 3021 3022 3024 3024 3024 3026 3030 3032 3033 3033 3033 3033 3034 3035 3037 3039 3041 3042 3043 3045 3046 3048 3050 3052 3054 3056 3057 3058 3060 3061 3062 3063 3064 3065 3067 3068 3069 3069 3070 3070 3070 3070 3070 3070 3070 3071 3071 3071 3071 3071 3071 3072 3072 3072 3072 3072 3072 3072 3072 3072 3072 3073 3073 3074 3074 3075 3076 3077 3078 3079 3079 3079 3080
3004 3006 3007 3009 3011 3013 3014 3015 3017 3019 3021 3019 3017 3018 3021 3022 3024 3024 3023 3024 3027 3029 3032 3033 3033 3033 3033 3035 3036 3038 3039 3041 3042 3044 3045 3046 3048 3049 3051 3053 3054 3055 3057 3058 3059 3060 3061 3063 3065 3066 3066 3066 3066 3066 3066 3066 3066 3066 3066 3067 3068 3068 3068 3068 3068 3069 3069 3069 3069 3069 3069 3069 3070 3070 3069 3070 3070 3071 3072 3073 3074 3075 3075 3077 3077 3078 3078
3002 3004 3006 3008 3009 3011 3013 3013 3014 3017 3020 3021 3019 3018 3020 3021 3023 3024 3024 3024 3026 3028 3029 3031 3031 3031 3032 3033 3035 3036 3038 3039 3041 3042 3043 3045 3046 3048 3049 3050 3051 3052 3053 3053 3055 3057 3059 3061 3062 3062 3062 3062 3062 3063 3063 3063 3063 3063 3063 3064 3064 3065 3065 3066 3066 3066 3067 3067 3067 3068 3068 3068 3068 3068 3068 3068 3069 3070 3070 3071 3072 3073 3074 3075 3075 3076 3076
2999 3001 3003 3005 3006 3007 3009 3011 3012 3014 3017 3019 3020 3020 3020 3020 3021 3022 3023 3024 3026 3028 3028 3029 3030 3030 3031 3032 3033 3035 3036 3038 3040 3041 3041 3043 3044 3045 3047 3048 3048 3049 3050 3051 3054 3057 3058 3058 3058 3058 3058 3059 3059 3060 3060 3060 3060 3060 3061 3061 3061 3062 3063 3063 3064 3064 3065 3065 3065 3066 3066 3066 3066 3067 3067 3068 3068 3069 3069 3070 3071 3071 3072 3072 3073 3073 3073
2998 3000 3001 3002 3003 3004 3007 3009 3012 3013 3015 3017 3019 3021 3021 3021 3020 3021 3023 3023 3024 3026 3028 3028 3029 3029 3029 3030 3031 3032 3034 3036 3038 3038 3038 3040 3042 3044 3046 3046 3047 3048 3049 3050 3052 3054 3054 3054 3054 3055 3055 3055 3056 3056 3057 3057 3057 3058 3058 3058 3059 3060 3060 3061 3061 3062 3062 3063 3063 3063 3064 3064 3065 3065 3066 3067 3067 3067 3068 3068 3068 3069 3069 3070 3070 3070 3071
2998 2999 3000 3001 3003 3005 3006 3008 3010 3011 3013 3015 3017 3019 3021 3021 3021 3022 3022 3023 3023 3025 3026 3027 3027 3028 3028 3029 3031 3032 3034 3036 3037 3037 3038 3040 3043 3045 3046 3046 3046 3046 3047 3048 3049 3050 3050 3050 3051 3051 3051 3052 3053 3053 3054 3055 3055 3055 3056 3056 3056 3057 3057 3058 3058 3059 3060 3060 3060 3061 3061 3062 3063 3063 3064 3064 3064 3065 3065 3065 3066 3066 3067 3067 3068 3068 3068
2999 2999 3000 3002 3004 3006 3006 3007 3007 3009 3012 3014 3016 3018 3019 3020 3020 3021 3022 3023 3024 3025 3026 3027 3028 3028 3029 3031 3032 3034 3035 3036 3037 3037 3038 3040 3042 3043 3043 3043 3043 3044 3044 3045 3045 3046 3046 3047 3047 3048 3048 3049 3050 3051 3051 3052 3052 3053 3053 3053 3053 3054 3055 3055 3056 3056 3057 3058 3058 3059 3059 3060 3060 3060 3061 3061 3061 3062 3062 3063 3063 3064 3064 3065 3065 3065 3065
3001 3002 3002 3003 3005 3006 3007 3007 3008 3009 3011 3014 3016 3017 3018 3019 3020 3021 3022 3023 3024 3024 3025 3026 3027 3028 3029 3030 3032 3033 3034 3034 3035 3035 3036 3037 3038 3039 3039 3040 3040 3040 3041 3041 3042 3042 3043 3044 3044 3045 3045 3046 3047 3048 3049 3049 3050 3050 3051 3051 3051 3052 3053 3053 3054 3054 3055 3055 3056 3056 3057 3057 3057 3057 3057 3058 3058 3059 3059 3060 3060 3061 3061 3062 3062 3062 3062
3004 3004 3004 3005 3006 3007 3008 3009 3009 3010 3011 3012 3014 3015 3016 3017 3018 3019 3020 3021 3022 3022 3023 3024 3025 3026 3027 3028 3029 3030 3031 3031 3032 3032 3032 3032 3033 3034 3035 3036 3036 3036 3037 3038 3038 3039 3040 3041 3041 3042 3042 3043 3044 3045 3046 3047 3047 3048 3048 3048 3049 3049 3050 3051 3051 3052 3052 3052 3053 3053 3053 3054 3054 3054 3054 3055 3055 3056 3056 3057 3058 3058 3058 3058 3058 3058 3058
3006 3006 3007 3007 3008 3009 3009 3010 3010 3011 3011 3012 3012 3014 3015 3016 3016 3017 3018 3019 3020 3020 3021 3022 3023 3024 3025 3026 3026 3027 3027 3028 3028 3028 3028 3029 3029 3030 3031 3032 3032 3033 3034 3034 3035 3035 3036 3037 3038 3038 3039 3039 3040 3041 3042 3043 3044 3044 3045 3046 3046 3046 3047 3047 3048 3048 3049 3049 3049 3050 3050 3050 3050 3051 3051 3052 3052 3053 3053 3054 3055 3055 3055 3055 3055 3054 3054
3006 3007 3008 3009 3010 3011 3011 3011 3011 3012 3012 3012 3012 3013 3015 3016 3017 3017 3018 3018 3019 3019 3019 3020 3021 3022 3022 3023 3023 3023 3024 3024 3025 3025 3025 3025 3026 3027 3028 3028 3029 3029 3030 3030 3031 3031 3032 3033 3034 3034 3035 3036 3036 3037 3038 3039 3040 3040 3041 3042 3042 3043 3043 3044 3045 3045 3045 3046 3046 3046 3047 3047 3047 3048 3048 3049 3049 3050 3050 3051 3051 3052 3052 3051 3051 3050 3050
3008 3009 3010 3010 3011 3012 3012 3012 3012 3013 3013 3013 3013 3014 3015 3016 3017 3017 3017 3017 3018 3018 3018 3019 3019 3019 3019 3020 3020 3020 3021 3021 3021 3022 3022 3022 3023 3024 3024 3025 3025 3025 3025 3026 3026 3027 3027 3028 3029 3030 3031 3032 3033 3034 3034 3035 3036 3037 3038 3038 3039 3039 3040 3041 3041 3042 3042 3043 3043 3043 3044 3044 3044 3045 3045 3046 3047 3047 3048 3048 3048 3048 3048 3048 3047 3046 3047
3009 3010 3011 3012 3012 3012 3012 3013 3013 3013 3013 3014 3014 3015 3015 3015 3016 3016 3016 3016 3016 3016 3016 3016 3017 3017 3017 3017 3017 3018 3018 3018 3018 3019 3019 3019 3020 3020 3020 3020 3021 3021 3021 3021 3022 3022 3023 3023 3024 3025 3027 3028 3029 3030 3031 3032 3033 3033 3034 3035 3036 3036 3037 3037 3038 3038 3039 3040 3040 3040 3041 3041 3041 3042 3042 3043 3044 3044 3044 3045 3044 3044 3044 3044 3043 3042 3042
3011 3012 3012 3013 3013 3013 3013 3013 3013 3013 3013 3013 3014 3014 3014 3014 3015 3014 3014 3014 3014 3014 3014 3014 3015 3015 3015 3015 3015 3015 3015 3015 3015 3016 3016 3016 3016 3016 3016 3017 3017 3017 3017 3017 3018 3018 3018 3019 3020 3021 3023 3024 3026 3027 3027 3028 3029 3030 3031 3032 3032 3033 3033 3034 3035 3035 3036 3037 3037 3037 3037 3038 3038 3039 3040 3040 3040 3041 3041 3041 3041 3041 3041 3040 3039 3038 3038
3013 3013 3013 3013 3013 3013 3013 3012 3012 3012 3012 3012 3013 3013 3013 3013 3013 3013 3012 3012 3011 3011 3012 3012 3012 3012 3012 3012 3012 3012 3013 3013 3012 3012 3013 3013 3013 3013 3013 3013 3013 3013 3013 3014 3014 3014 3015 3015 3016 3017 3019 3020 3022 3023 3023 3024 3026 3027 3028 3028 3029 3029 3030 3031 3031 3032 3032 3033 3034 3034 3035 3035 3036 3036 3036 3037 3037 3037 3037 3037 3037 3037 3037 3037 3036 3035 3034
3013 3013 3013 3012 3012 3012 3012 3012 3012 3012 3012 3012 3012 3012 3012 3012 3011 3011 3010 3010 3010 3010 3010 3011 3011 3011 3011 3011 3011 3011 3011 3010 3010 3010 3010 3010 3010 3010 3010 3010 3010 3010 3011 3011 3011 3012 3012 3012 3014 3015 3016 3017 3018 3019 3020 3021 3022 3023 3024 3024 3025 3026 3026 3027 3028 3028 3029 3030 3031 3031 3032 3033 3033 3033 3033 3034 3034 3033 3033 3033 3034 3033 3033 3033 3033 3032 3031
3013 3013 3012 3012 3012 3012 3011 3011 3012 3011 3011 3011 3011 3011 3011 3010 3010 3009 3009 3009 3010 3010 3010 3010 3010 3010 3010 3010 3010 3010 3009 3009 3009 3009 3009 3009 3008 3008 3008 3008 3008 3009 3009 3009 3010 3010 3011 3011 3012 3013 3013 3014 3015 3016 3017 3017 3018 3019 3020 3021 3022 3023 3023 3024 3025 3026 3027 3028 3028 3029 3029 3030 3030 3030 3030 3030 3030 3030 3030 3029 3029 3029 3029 3029 3029 3029 3028
3013 3013 3013 3012 3012 3012 3012 3012 3012 3012 3012 3012 3012 3011 3011 3011 3010 3010 3010 3010 3010 3010 3010 3010 3010 3010 3010 3009 3009 3009 3009 3009 3009 3009 3008 3008 3008 3007 3007 3007 3008 3008 3008 3009 3009 3010 3010 3011 3011 3012 3012 3013 3013 3014 3014 3015 3015 3016 3017 3018 3019 3020 3021 3022 3023 3024 3025 3026 3026 3026 3026 3027 3027 3027 3027 3026 3026 3026 3026 3025 3025 3025 3025 3025 3025 3025 3024
3014 3014 3014 3014 3014 3013 3013 3013 3013 3013 3013 3013 3012 3012 3012 3012 3011 3011 3011 3011 3011 3011 3011 3010 3010 3010 3009 3009 3009 3009 3009 3009 3009 3008 3008 3008 3007 3007 3007 3007 3007 3008 3008 3008 3009 3009 3010 3010 3011 3011 3011 3011 3011 3012 3012 3013 3013 3014 3015 3016 3017 3018 3019 3020 3021 3022 3023 3023 3023 3023 3024 3024 3024 3023 3023 3023 3023 3022 3022 3022 3022 3021 3021 3021 3021 3020 3020
3015 3015 3015 3015 3014 3014 3014 3014 3014 3014 3013 3013 3013 3013 3013 3012 3012 3011 3011 3011 3011 3011 3011 3010 3010 3009 3009 3008 3008 3008 3008 3008 3008 3008 3008 3008 3007 3007 3007 3007 3007 3007 3007 3008 3009 3009 3010 3010 3010 3010 3010 3010 3010 3010 3011 3012 3012 3013 3014 3015 3016 3017 3018 3019 3019 3020 3020 3021 3021 3021 3021 3021 3020 3020 3020 3020 3019 3019 3019 3019 3018 3018 3018 3017 3017 3017 3017
3016 3016 3016 3015 3015 3014 3014 3014 3013 3013 3013 3013 3014 3013 3013 3013 3012 3012 3012 3011 3011 3011 3010 3010 3009 3009 3008 3008 3009 3009 3009 3008 3008 3009 3008 3008 3008 3007 3007 3007 3007 3007 3008 3008 3009 3009 3009 3009 3009 3009 3009 3009 3009 3010 3010 3011 3012 3013 3013 3014 3015 3016 3016 3017 3017 3018 3018 3018 3018 3018 3018 3018 3018 3017 3017 3017 3017 3016 3016 3015 3015 3015 3015 3014 3014 3013 3013
3017 3016 3016 3015 3015 3014 3014 3013 3013 3013 3013 3013 3013 3013 3013 3012 3012 3012 3011 3011 3011 3010 3010 3009 3009 3009 3009 3009 3009 3009 3009 3008 3008 3008 3008 3008 3008 3008 3007 3007 3007 3007 3008 3008 3009 3009 3008 3008 3008 3008 3008 3009 3009 3009 3010 3011 3011 3012 3012 3013 3013 3014 3014 3014 3015 3015 3015 3015 3015 3015 3015 3015 3015 3015 3014 3014 3014 3013 3013 3012 3012 3012 3012 3011 3011 3010 3010
3017 3017 3016 3016 3015 3014 3014 3014 3014 3013 3013 3013 3013 3013 3012 3012 3011 3011 3010 3010 3010 3010 3009 3009 3009 3009 3009 3008 3008 3008 3008 3008 3008 3008 3008 3008 3008 3007 3007 3007 3007 3007 3007 3007 3008 3007 3007 3007 3007 3007 3007 3007 3008 3008 3009 3009 3009 3010 3010 3010 3011 3011 3011 3012 3012 3012 3012 3012 3012 3012 3012 3012 3012 3011 3011 3011 3011 3010 3009 3009 3009 3009 3008 3008 3008 3007 3007
3018 3017 3017 3016 3016 3015 3015 3014 3014 3014 3013 3013 3013 3012 3012 3011 3010 3010 3009 3009 3009 3009 3009 3008 3008 3008 3008 3007 3007 3007 3007 3007 3007 3007 3007 3007 3007 3007 3006 3006 3006 3006 3006 3006 3006 3006 3006 3005 3005 3005 3006 3006 3006 3007 3007 3007 3007 3007 3008 3008 3008 3008 3009 3009 3009 3009 3009 3009 3009 3009 3009 3009 3009 3008 3008 3008 3008 3007 3006 3005 3005 3005 3005 3004 3004 3004 3004
3018 3018 3017 3017 3017 3016 3015 3015 3014 3014 3013 3013 3012 3012 3012 3011 3010 3009 3009 3009 3009 3009 3009 3008 3007 3007 3006 3006 3005 3005 3005 3006 3006 3006 3006 3006 3006 3006 3005 3005 3005 3005 3005 3005 3005 3005 3004 3004 3004 3004 3004 3005 3005 3005 3005 3005 3005 3005 3005 3006 3006 3006 3006 3006 3006 3007 3006 3006 3006 3006 3006 3006 3006 3005 3005 3005 3004 3003 3002 3002 3001 3001 3001 3000 3000 3000 3000
3017 3017 3017 3017 3017 3016 3016 3015 3015 3014 3013 3013 3012 3012 3012 3011 3010 3010 3009 3009 3009 3009 3010 3009 3007 3006 3005 3005 3004 3004 3004 3004 3004 3004 3004 3004 3004 3004 3004 3004 3003 3003 3004 3004 3004 3003 3003 3003 3003 3003 3003 3003 3004 3003 3003 3003 3003 3003 3003 3003 3004 3004 3004 3004 3004 3004 3004 3003 3003 3003 3003 3003 3003 3002 3002 3001 3001 3000 3000 2999 2998 2997 2997 2997 2997 2996 2996
3017 3017 3017 3017 3016 3015 3015 3015 3015 3014 3013 3013 3012 3012 3011 3011 3011 3011 3010 3009 3009 3009 3009 3009 3008 3007 3006 3006 3005 3004 3003 3003 3003 3002 3002 3002 3002 3002 3002 3001 3001 3001 3002 3002 3002 3002 3001 3001 3001 3001 3001 3002 3002 3001 3001 3001 3001 3001 3001 3001 3001 3001 3001 3001 3001 3001 3001 3001 3000 3000 3000 3000 2999 2999 2998 2998 2997 2997 2996 2996 2995 2994 2993 2993 2993 2992 2992
3017 3017 3017 3016 3016 3015 3015 3015 3014 3013 3012 3012 3012 3011 3010 3010 3011 3010 3009 3008 3008 3008 3008 3008 3008 3007 3006 3006 3005 3004 3002 3002 3001 3000 3000 2999 2999 2999 2999 2999 2999 2999 2999 3000 3000 3000 3000 2999 2999 2999 2999 3000 3000 3000 2999 2998 2998 2998 2998 2998 2998 2998 2998 2997 2997 2998 2997 2997 2997 2997 2996 2996 2996 2995 2994 2994 2994 2993 2992 2991 2991 2990 2989 2988 2988 2988 2988
3017 3017 3017 3016 3016 3015 3014 3014 3013 3012 3012 3011 3011 3010 3010 3010 3010 3010 3009 3008 3007 3007 3007 3007 3007 3006 3005 3004 3003 3002 3001 3000 2999 2999 2998 2998 2998 2998 2998 2998 2998 2997 2997 2998 2998 2998 2998 2997 2997 2997 2997 2997 2997 2997 2996 2996 2996 2996 2995 2995 2995 2994 2994 2994 2994 2994 2993 2993 2993 2993 2993 2992 2992 2991 2991 2991 2990 2989 2988 2987 2986 2986 2985 2984 2983 2983 2983